DW2802 Ogijares ES current weather conditions

sailwx.info

Wind from 173

Air temperature 4.4° C
Dewpoint -2.9° C

Last reported at 2018-Feb-22 02:05 UTC.
Time now 2018-Feb-22 02:55 UTC

Location: N 37°07' W 003°36'.
View on Google Maps.

See reports from other nearby stations

  
Tides and Currents Weather Stations Pressure Air Temp Water Temp Dewpoint Dewpoint Depression Visibility Wind Speed Wind Dir Waves Ship Positions
date/time (UTC)wind fromknots sea level pressurealtimeterstation pressurevisibilityair tempwater tempwave heightnotes
2018-Feb-22 02:05 173 4.4
2018-Feb-22 01:50 173 5.0
2018-Feb-22 01:35 173 5.0
2018-Feb-22 01:20 173 1 gusting 4 5.0
2018-Feb-22 01:05 173 2 gusting 6 5.0
2018-Feb-22 00:50 114 1 gusting 5 5.0
2018-Feb-22 00:35 098 5.6
2018-Feb-22 00:20 093 5.6
2018-Feb-22 00:05 063 5.0
2018-Feb-21 23:50 037 5.0
2018-Feb-21 23:35 036 5.0
2018-Feb-21 23:20 036 0 gusting 2 4.4
2018-Feb-21 23:05 036 5.0
2018-Feb-21 22:50 034 5.0
2018-Feb-21 22:35 034 5.0
2018-Feb-21 22:20 034 5.6
2018-Feb-21 22:05 034 5.6
2018-Feb-21 21:50 034 6.1
2018-Feb-21 21:35 034 6.7
2018-Feb-21 21:20 034 6.7
2018-Feb-21 21:05 034 1 gusting 4 6.7
2018-Feb-21 20:50 031 3 gusting 7 6.7
2018-Feb-21 20:35 030 4 gusting 7 7.2
2018-Feb-21 20:20 039 4 gusting 8 7.2
2018-Feb-21 20:05 033 6 gusting 10 7.2
2018-Feb-21 19:50 037 6 gusting 12 7.2
2018-Feb-21 19:35 041 5 gusting 10 7.2
2018-Feb-21 19:20 053 4 gusting 10 7.2
2018-Feb-21 19:05 044 6 gusting 10 7.2
2018-Feb-21 18:50 030 7 gusting 13 7.8
2018-Feb-21 18:35 037 6 gusting 13 7.8
2018-Feb-21 18:20 049 7 gusting 13 8.3
2018-Feb-21 18:05 043 5 gusting 13 8.9
2018-Feb-21 17:50 022 6 gusting 13 8.9
2018-Feb-21 17:35 331 10 gusting 18 9.4
2018-Feb-21 17:20 339 10 gusting 19 9.4
2018-Feb-21 17:05 360 8 gusting 18 10.0
2018-Feb-21 16:50 016 12 gusting 22 10.0
2018-Feb-21 16:35 342 6 gusting 23 10.6
2018-Feb-21 16:19 015 13 gusting 20 10.6
2018-Feb-21 16:04 011 13 gusting 21 11.1
2018-Feb-21 15:50 011 14 gusting 22 11.1
2018-Feb-21 15:34 018 9 gusting 16 11.1
2018-Feb-21 15:19 019 11 gusting 17 11.1
2018-Feb-21 14:34 360 9 gusting 19 11.1
2018-Feb-21 14:19 057 6 gusting 18 11.1
2018-Feb-21 14:04 044 12 gusting 19 11.7
2018-Feb-21 13:49 046 11 gusting 23 11.1
2018-Feb-21 13:34 036 13 gusting 20 12.2
2018-Feb-21 13:19 053 10 gusting 21 11.7
2018-Feb-21 13:04 041 15 gusting 23 11.7
2018-Feb-21 12:49 060 11 gusting 19 11.7
2018-Feb-21 12:34 068 9 gusting 20 11.7
2018-Feb-21 12:19 040 8 gusting 19 11.7
2018-Feb-21 12:04 038 10 gusting 18 11.7
2018-Feb-21 11:49 052 10 gusting 20 11.7
2018-Feb-21 11:34 055 10 gusting 19 12.2
2018-Feb-21 11:19 048 6 gusting 13 11.7
2018-Feb-21 11:04 028 9 gusting 23 11.1
2018-Feb-21 10:49 022 11 gusting 19 11.1
2018-Feb-21 10:34 061 12 gusting 20 11.1
2018-Feb-21 10:19 056 8 gusting 23 11.1
2018-Feb-21 10:04 029 10 gusting 19 11.1
2018-Feb-21 09:49 030 10 gusting 17 10.0
2018-Feb-21 09:34 035 10 gusting 20 9.4
2018-Feb-21 09:18 040 10 gusting 23 9.4
2018-Feb-21 09:03 026 13 gusting 19 9.4
2018-Feb-21 08:48 030 12 gusting 21 9.4
2018-Feb-21 08:33 030 10 gusting 15 9.4
2018-Feb-21 08:18 024 7 gusting 20 8.3
2018-Feb-21 08:03 025 8 gusting 15 6.7
2018-Feb-21 07:48 043 2 gusting 8 6.1
2018-Feb-21 07:33 021 1 gusting 10 5.0
2018-Feb-21 07:18 221 3 gusting 6 3.3
2018-Feb-21 07:03 221 1 gusting 2 3.3
2018-Feb-21 06:48 221 3.9
2018-Feb-21 06:33 221 1 gusting 3 3.9
2018-Feb-21 06:18 221 4.4
2018-Feb-21 06:03 223 0 gusting 5 4.4
2018-Feb-21 05:48 223 2 gusting 3 4.4
2018-Feb-21 05:33 223 1 gusting 3 4.4
2018-Feb-21 05:18 224 0 gusting 3 5.0
2018-Feb-21 05:03 224 1 gusting 5 5.6
2018-Feb-21 04:48 248 2 gusting 4 5.6
2018-Feb-21 04:32 263 0 gusting 3 5.6
2018-Feb-21 04:17 304 2 gusting 4 6.1
2018-Feb-21 04:02 014 1 gusting 3 6.1
2018-Feb-21 03:47 014 1 gusting 3 6.7
2018-Feb-21 03:32 017 2 gusting 8 7.8
2018-Feb-21 03:17 022 4 gusting 13 7.8
2018-Feb-21 03:02 248 3 gusting 6 7.2
2018-Feb-21 02:47 216 0 gusting 4 6.7
2018-Feb-21 02:32 215 6.7
2018-Feb-21 02:17 215 6.7
2018-Feb-21 02:02 215 7.2
2018-Feb-21 01:47 215 7.2
2018-Feb-21 01:32 215 7.2
2018-Feb-21 01:17 215 7.8
2018-Feb-21 01:02 214 1 gusting 5 7.8
2018-Feb-21 00:47 195 7.8
2018-Feb-21 00:32 196 1 gusting 3 7.8
2018-Feb-21 00:17 194 3 gusting 6 7.8
2018-Feb-21 00:02 005 8.3
2018-Feb-20 23:47 360 0 gusting 4 8.9
2018-Feb-20 23:32 013 1 gusting 4 9.4
2018-Feb-20 23:17 026 9.4
2018-Feb-20 23:02 026 1 gusting 3 9.4
2018-Feb-20 22:47 032 9.4
2018-Feb-20 22:32 032 9.4
2018-Feb-20 22:17 032 0 gusting 7 10.0
2018-Feb-20 22:02 032 3 gusting 7 10.0
2018-Feb-20 21:47 025 6 gusting 10 10.6
2018-Feb-20 21:32 052 3 gusting 7 10.0
2018-Feb-20 21:17 038 3 gusting 6 10.6
2018-Feb-20 21:02 026 2 gusting 5 10.6
2018-Feb-20 20:47 026 2 gusting 5 10.6
2018-Feb-20 20:32 026 1 gusting 4 10.6
2018-Feb-20 20:16 026 2 gusting 7 11.1
2018-Feb-20 20:02 040 3 gusting 6 11.1
2018-Feb-20 19:46 047 4 gusting 8 11.7
2018-Feb-20 19:31 051 6 gusting 10 11.7
2018-Feb-20 19:16 024 6 gusting 13 11.7
2018-Feb-20 19:01 024 6 gusting 11 12.2
2018-Feb-20 18:46 014 6 gusting 12 12.2
2018-Feb-20 18:31 013 9 gusting 15 12.8
2018-Feb-20 18:16 026 9 gusting 15 12.8
2018-Feb-20 18:01 037 10 gusting 16 12.8
2018-Feb-20 17:46 023 10 gusting 15 13.3
2018-Feb-20 17:31 035 6 gusting 13 13.3
2018-Feb-20 17:16 030 8 gusting 13 13.9
2018-Feb-20 17:01 023 8 gusting 18 13.9
2018-Feb-20 16:46 044 9 gusting 16 13.9
2018-Feb-20 16:31 063 11 gusting 15 14.4
2018-Feb-20 16:16 055 9 gusting 19 15.0
2018-Feb-20 16:01 088 6 gusting 16 15.0
2018-Feb-20 15:46 051 11 gusting 17 15.6
2018-Feb-20 15:31 068 10 gusting 16 15.6
2018-Feb-20 15:16 032 10 gusting 18 15.0
2018-Feb-20 15:01 060 6 gusting 15 15.6
2018-Feb-20 14:46 063 10 gusting 18 15.6
2018-Feb-20 14:31 047 7 gusting 16 15.0
2018-Feb-20 14:16 038 8 gusting 13 15.0
2018-Feb-20 14:01 065 8 gusting 15 15.0
2018-Feb-20 13:46 038 6 gusting 15 15.0
2018-Feb-20 13:31 063 8 gusting 18 15.0
2018-Feb-20 13:16 065 5 gusting 15 15.0
2018-Feb-20 13:01 046 8 gusting 12 15.0
2018-Feb-20 12:46 005 6 gusting 10 15.6
2018-Feb-20 12:31 013 5 gusting 12 14.4
2018-Feb-20 12:16 346 6 gusting 10 13.3
2018-Feb-20 12:01 343 1 gusting 6 12.8
2018-Feb-20 11:46 316 1 gusting 5 11.7
2018-Feb-20 11:31 355 1 gusting 5 11.1
2018-Feb-20 11:16 291 1 gusting 3 10.6
2018-Feb-20 11:00 290 1 gusting 6 10.0
2018-Feb-20 10:45 311 4 gusting 8 9.4
2018-Feb-20 10:30 296 2 gusting 6 8.9
2018-Feb-20 10:15 340 1 gusting 4 8.9
2018-Feb-20 10:00 345 1 gusting 4 8.3
2018-Feb-20 09:45 355 7.8
2018-Feb-20 09:30 355 0 gusting 4 7.2
2018-Feb-20 09:15 038 2 gusting 4 7.2
2018-Feb-20 09:00 127 7.2
2018-Feb-20 08:45 127 6.7
2018-Feb-20 08:30 127 5.6
2018-Feb-20 08:15 142 2 gusting 3 5.0
2018-Feb-20 08:00 142 5.0
2018-Feb-20 07:45 142 3.9
2018-Feb-20 07:30 148 3.3
2018-Feb-20 07:14 148 3.3
2018-Feb-20 06:59 148 3.3
2018-Feb-20 06:44 148 3.3
2018-Feb-20 06:29 148 3.9
2018-Feb-20 06:14 148 3.9
2018-Feb-20 05:59 148 3.9
2018-Feb-20 05:44 148 0 gusting 4 3.9
2018-Feb-20 05:29 148 1 gusting 4 3.9
2018-Feb-20 05:14 148 2 gusting 5 3.9
2018-Feb-20 04:59 148 3.9
2018-Feb-20 04:44 148 4.4
2018-Feb-20 04:29 148 0 gusting 2 4.4
2018-Feb-20 04:14 148 2 gusting 5 4.4
2018-Feb-20 03:59 148 2 gusting 4 4.4
2018-Feb-20 03:44 148 1 gusting 4 4.4
2018-Feb-20 03:29 148 1 gusting 4 4.4
2018-Feb-20 03:14 148 2 gusting 6 4.4
2018-Feb-20 02:59 149 1 gusting 5 4.4
2018-Feb-20 02:44 149 5.0
2018-Feb-20 02:29 149 5.0
2018-Feb-20 02:14 149 1 gusting 4 5.6
2018-Feb-20 02:00 149 1 gusting 4 5.6